User: anonymous   Login
Location: Unspecified
(0.0000°N, 0.0000°E)
Time: 00:55:40
(UTC+00:00)
Language:

Tiros 10 - Orbit

View from above orbital plane
View from above orbital plane
View from above satellite
View from above satellite

Ground track
Ground track

The orbit data is extracted from the following two-line orbital elements,

1  1430U 65051A   17084.92760128 +.00000023 +00000-0 +19740-4 0  9990
2  1430 098.1290 243.2244 0057322 146.2747 214.2111 14.40182152710671
Epoch (UTC): 25 March 2017 22:15:44
Eccentricity: 0.0057322
inclination: 98.1290°
perigee height: 717 km
apogee height: 799 km
right ascension of ascending node: 243.2244°
argument of perigee: 146.2747°
revolutions per day: 14.40182152
mean anomaly at epoch: 214.2111°
orbit number at epoch: 71067

The dashed part of the orbit path shows where the satellite is in the earth's shadow,  

DLR